Погода в Угловке

Россия / Новгородская область     58°12′50″N   33°31′03″E
темп.,
°C
ветер,
м/с
пор.,
м/с
влажн.,
%
обл.,
%
осадки,
мм/ч
давл.,
гПа
погр.,
м
24 июля, сб
сб2400:00+13зсз2868100 0.0 1011267
03:00+12сз2671100 0.0 1012183
06:00+12сз2569100 0.0 1013207
09:00+16сз24495 0.0 1014877
12:00+19сз3438100 0.0 10142341
15:00+20зюз353775 0.0 10151887
18:00+19зюз354598 0.0 1015537
21:00+15зюз275999 0.0 1016194
25 июля, вс
вс2500:00+14зсз1166100 0.0 101822
03:00+11зсз117650 0.0 101911
06:00+12зюз127941 0.0 102070
09:00+18зюз23551 0.0 1020650
12:00+22з34390 0.0 10202065
15:00+24з333329 0.0 10202450
18:00+23з33365 0.0 10202250
21:00+16ссв116621 0.0 102111
26 июля, пн
пн2600:00+15ююз22665 0.0 102227
03:00+14зюз11685 0.0 102210
06:00+15ююз11665 0.0 102212
09:00+22ююз11435 0.0 1022450
12:00+27ююз123345 0.0 10222451
15:00+26з123580 0.0 10212390
18:00+22ююз226245 0.0 102183
21:00+19ю237283 0.0 102239
27 июля, вт
вт2700:00+19ююз236999 0.0 102256
03:00+17юз227323 0.0 102239
06:00+17юз11754 0.0 102212
09:00+24ююз11504 0.0 1022422
12:00+29ю113411 0.0 10212590
15:00+24ююз2251100 0.0 102088
18:00+24ююз475183 0.0 1019438
21:00+20ююз36616 0.0 1018115
28 июля, ср
ср2800:00+18ююз36746 0.0 101887
03:00+18ююз38795 0.0 1017146
06:00+18ю39785 0.0 1016192
09:00+24ююз485191 0.0 1014596
12:00+28ююз573864 0.0 10122147
15:00+26ююз5747100 0.0 10111614
18:00+20ююз51182100 0.4 1011709
21:00+17ююв31093100 0.6 1009532